Regional Weather Roundup
Issued by NWS Goodland, KS

Home | Current Version | Previous Version | Text Only | Print | Product List | Glossary On
Versions: 1 2 3 4 5 6 7 8 9 10 11 12 13 14 15 16 17 18 19 20 21 22 23 24 25 26 27 28 29 30 31 32 33 34 35 36 37 38 39 40 41 42 43 44 45 46 47 48 49 50
000
ASUS43 KGLD 300908
RWRGLD

GOODLAND FORECAST AREA HOURLY WEATHER ROUNDUP
NATIONAL WEATHER SERVICE GOODLAND KS
300 AM MDT TUE MAY 30 2017

...OFFICIAL OBSERVATIONS...

CITY           SKY/WX    TMP DP  RH WIND       PRES   REMARKS
GOODLAND KS    CLEAR     50  47  89 W10       30.15F
HILL CITY KS   CLEAR     59  52  77 W10       30.11F
IMPERIAL NEB   PTCLDY    54  45  71 W8        30.12F
MCCOOK NEB     PTCLDY    50  48  93 SW9       30.10S
AKRON CO       CLEAR     48  41  76 W10       30.19F
BURLINGTON CO  CLEAR     47  45  93 W7        30.18F
LIMON CO       CLEAR     38  38 100 N6        30.23F
$$

...UNOFFICIAL OBSERVATIONS...

CITY           SKY/WX    TMP DP  RH WIND       PRES   REMARKS
LENORA KS        N/A     51  32  48 MISG        N/A
NORTON KS      CLEAR     48  43  81 W6        30.10F
SHARON SPRINGS   N/A     48  46  93 SW8         N/A
TRENTON NEB      N/A     51  32  48 NW7         N/A
KIT CARSON CO    N/A     43  40  89 CALM        N/A
YUMA CO        FAIR      43  34  70 W8        30.16F
$$



USA.gov is the U.S. government's official web portal to all federal, state and local government web resources and services.